EHI
0 0 0 0 0 0 0 0 0 0 0 0 0 0 0 0 0 0 0 0 0 0 0 0 0 0 0 0 0 0 0 0 0 0 0 0 0 0 0 0 0 0 0
0 0 0 0 0 0 0 0 0 0 0 0 0 0 0 0 0 0 0 0 0 0 0 0 0 0 0 0 0 0 0 0 0 0 0 0 0 0 0 0 0 0 0
0 0 0 0 0 0 0 0 0 0 0 0 0 0 0 0 0 0 0 0 0 0 0 0 0 0 0 0 0 0 0 0 0 0 0 0 0 0 0 0 0 0 0
1 1 0 0 0 0 0 0 0 0 0 0 0 0 0 0 0 0 0 0 0 0 0 0 0 0 1 1 1 1 0 0 0 0 0 0 0 0 0 0 0 0 0
0 0 0 0 0 0 0 0 0 0 0 0 0 0 0 0 0 0 0 0 0 0 0 0 0 0 1 1 2 1 0 0 1 1 0 0 0 0 1 1 0 0 0
0 0 0 0 0 0 0 0 0 0 0 0 0 0 0 0 0 0 0 0 0 0 0 0 0 0 0 1 1 1 0 0 1 1 0 0 0 0 1 1 0 0 0
0 0 0 0 0 0 0 0 0 0 0 0 0 0 0 0 0 0 0 0 0 0 0 0 0 0 0 0 0 0 0 0 1 1 0 0 0 0 1 1 0 0 0
0 0 0 0 0 0 0 0 0 0 0 0 0 0 0 0 0 0 0 0 0 0 0 0 0 0 0 0 0 0 0 0 0 0 0 0 0 0 0 0 0 0 0
0 0 0 0 0 0 0 0 0 0 0 0 0 0 0 0 0 0 0 0 0 0 0 0 0 0 0 0 0 0 0 0 0 0 0 0 0 0 0 0 0 0 0
0 0 0 0 0 0 0 0 0 0 0 0 0 0 0 0 0 0 0 0 0 0 0 0 0 0 0 0 0 0 0 0 0 0 0 0 0 0 0 0 0 0 0
0 0 0 0 0 0 0 0 0 0 0 0 0 0 0 0 0 0 0 0 0 0 0 0 0 0 0 0 0 0 0 0 0 0 0 0 0 0 0 0 0 0 0
0 0 0 0 0 0 0 0 0 0 0 0 0 0 0 0 0 0 0 0 0 0 0 0 0 0 0 0 0 0 0 0 0 0 0 0 0 0 0 0 0 0 0
0 0 0 0 0 0 0 0 0 0 0 0 0 0 0 0 0 0 0 0 0 0 0 0 0 0 0 0 0 0 0 0 0 0 0 0 0 0 0 0 0 0 0
0 0 0 0 0 0 0 0 0 0 0 0 0 0 0 0 0 0 0 0 0 0 0 0 0 0 0 0 0 0 0 0 0 0 0 0 0 0 0 0 0 0 0
0 0 0 0 0 0 0 0 0 0 0 0 0 0 0 0 0 0 0 0 0 0 0 0 0 0 0 0 0 0 0 0 0 0 0 0 0 0 0 0 0 0 0
0 0 0 0 0 0 0 0 0 0 0 0 0 0 0 0 0 0 0 0 0 0 0 0 0 0 0 0 0 0 0 0 0 0 0 0 0 0 0 0 0 0 0
0 0 0 0 0 0 0 0 0 0 0 0 0 0 0 0 0 0 0 0 0 0 0 0 0 0 0 0 0 0 0 0 0 0 0 0 0 0 0 0 0 0 0
0 0 0 0 0 0 0 0 0 0 0 0 0 0 0 0 0 0 0 0 0 0 0 0 0 0 0 0 0 0 0 0 0 0 0 0 0 0 0 0 0 0 0
0 0 0 0 0 0 0 0 0 0 0 0 0 0 0 0 0 0 0 0 0 0 0 0 0 0 0 0 0 0 0 0 0 0 0 0 0 0 0 0 0 0 0
0 0 0 0 0 0 0 0 0 0 0 0 0 0 0 0 0 0 0 0 0 0 0 0 0 0 0 0 0 0 0 0 0 0 0 0 0 0 0 0 0 0 0
0 0 0 0 0 0 0 0 0 0 0 0 0 0 0 0 0 0 0 0 0 0 0 0 0 0 0 0 0 0 0 0 0 0 0 0 0 0 0 0 0 0 0
0 0 0 0 0 0 0 0 0 0 0 0 0 0 0 0 0 0 0 0 0 0 0 0 0 0 0 0 0 0 0 0 0 0 0 0 0 0 0 0 0 0 0
0 0 0 0 0 0 0 0 0 0 0 0 0 0 0 0 0 0 0 0 0 0 0 0 0 0 0 0 0 0 0 0 0 0 0 0 0 0 0 0 0 0 0
0 0 0 0 0 0 0 0 0 0 0 0 0 0 0 0 0 0 0 0 0 0 0 0 0 0 0 0 0 0 0 0 0 0 0 0 0 0 0 0 0 0 0
0 0 0 0 0 0 0 0 0 0 0 0 0 0 0 0 0 0 0 0 0 0 0 0 0 0 0 0 0 0 0 0 0 0 0 0 0 0 0 0 0 0 0
0 0 0 0 0 0 0 0 0 0 0 0 0 0 0 0 0 0 0 0 0 0 0 0 0 0 0 0 0 0 0 0 0 0 0 0 0 0 0 0 0 0 0
Wind_Speed
2 2 2 2 2 2 2 2 3 3 4 4 4 5 5 4 4 4 3 7 7 8 7 8 8 8 7 7 7 7 7 7 7 7 8 8 8 8 8 8 9 9 8
2 2 2 2 2 2 2 2 3 3 3 3 4 4 4 3 3 4 3 4 6 7 7 7 6 6 6 6 5 6 6 6 6 6 6 6 7 7 7 7 7 7 7
2 2 2 2 2 2 2 3 3 3 3 3 4 4 3 3 3 3 3 2 3 5 6 6 5 5 4 5 4 4 4 4 5 5 5 5 6 6 6 6 6 6 6
3 2 2 2 2 2 2 2 2 2 2 3 3 3 3 2 3 3 2 2 2 2 3 5 5 4 4 4 4 4 3 3 3 4 4 4 4 5 5 5 5 5 5
3 3 2 1 2 2 2 2 2 2 2 2 2 2 2 2 2 2 3 2 2 2 2 3 4 3 3 3 3 3 3 3 3 3 3 3 3 3 4 5 4 4 5
2 3 2 2 2 2 2 2 2 2 2 2 2 2 2 2 2 1 1 2 2 2 2 2 1 2 2 3 3 3 3 2 3 3 3 3 3 3 3 4 4 4 4
2 3 2 2 2 2 1 2 2 3 2 2 2 2 2 2 1 1 1 1 1 1 1 1 1 1 1 1 2 2 2 2 2 2 2 2 2 2 2 3 4 4 3
2 2 2 2 1 2 2 2 2 2 1 1 1 1 0 1 2 2 1 1 1 1 1 1 1 0 0 0 1 1 1 1 2 1 2 2 2 2 2 3 3 4 4
2 2 2 2 2 2 2 2 1 2 1 0 0 2 2 2 1 1 1 0 1 1 0 0 0 0 0 0 0 1 1 2 2 2 2 3 3 3 3 4 4 4 5
1 1 1 2 2 2 2 2 1 0 2 2 0 1 0 1 1 1 1 1 1 1 1 1 1 1 1 1 1 1 2 2 3 4 4 4 4 4 4 4 5 5 5
1 1 1 1 1 1 2 2 1 0 1 1 1 0 0 1 1 2 2 2 2 1 1 1 1 1 1 2 2 2 3 3 4 5 5 5 5 5 5 5 4 4 4
1 1 1 1 1 1 1 1 1 1 1 1 1 1 1 1 1 1 1 2 2 2 2 2 2 2 2 2 2 3 4 4 4 5 6 6 6 6 6 5 5 5 5
1 2 1 1 1 1 1 2 2 2 1 2 2 2 2 2 1 1 1 2 2 2 2 2 2 2 2 1 2 4 4 5 5 6 6 7 6 6 6 6 6 5 6
1 2 1 1 1 1 2 2 2 2 2 2 2 2 2 2 2 2 2 2 2 2 2 3 2 2 1 1 3 4 3 6 7 7 7 6 6 6 6 6 6 6 5
1 2 2 2 2 2 2 2 2 3 3 3 3 2 2 2 2 2 2 3 3 3 4 3 2 2 1 1 3 3 3 5 7 7 7 7 6 7 7 7 6 5 5
1 2 3 3 2 2 2 2 2 3 3 3 2 3 2 2 2 2 2 3 3 3 5 3 2 2 2 3 5 4 4 7 7 7 8 8 7 7 7 7 6 6 6
2 2 3 3 3 2 2 2 3 3 3 3 3 3 3 3 2 2 2 3 3 3 5 4 2 2 3 3 3 3 3 4 4 8 8 8 8 8 8 7 7 7 7
2 2 2 3 3 3 3 3 3 4 4 4 4 4 4 3 3 3 3 4 4 4 4 6 3 3 4 3 3 4 4 4 4 7 9 9 9 8 8 8 8 8 7
2 2 2 3 3 3 3 3 4 4 4 4 4 4 4 4 4 4 4 4 4 4 4 5 4 3 3 3 3 4 4 3 4 6 8 9 10 9 9 9 9 8 8
2 2 2 3 3 3 4 4 4 4 4 4 4 4 4 5 5 5 5 5 4 4 4 4 4 3 3 3 3 3 3 3 4 4 6 7 9 10 9 9 9 9 9
2 2 2 3 3 3 4 4 4 4 3 3 3 4 5 6 8 6 5 5 4 4 4 4 5 4 4 4 4 3 4 3 4 3 3 4 4 4 6 8 9 9 9
2 2 2 3 3 3 6 7 5 3 3 4 4 4 5 6 8 9 10 9 8 6 6 6 6 6 6 5 4 4 3 3 4 3 3 4 3 5 4 4 9 11 10
2 2 2 2 3 4 7 7 7 3 3 4 4 4 4 5 7 5 8 10 10 12 11 8 7 7 6 6 5 5 5 5 5 3 3 5 4 5 4 6 11 11 11
2 2 3 3 3 4 7 8 7 4 3 4 5 5 5 5 6 6 6 6 6 7 8 7 7 7 6 5 6 6 6 4 3 3 3 4 4 4 4 4 11 13 11
2 3 3 3 3 4 7 7 6 3 3 4 5 5 5 5 9 11 7 6 7 7 9 11 12 10 11 11 9 4 4 4 5 4 3 4 3 3 4 5 7 12 11
2 3 3 3 3 4 6 7 6 2 3 3 4 5 8 8 10 11 7 6 7 6 5 6 7 8 7 8 11 7 6 5 4 4 3 3 3 2 4 3 4 4 5
Wind_Direction
50 58 75 70 72 73 72 59 50 48 45 46 44 44 45 49 47 47 50 60 69 73 78 84 84 85 89 92 99 99 95 96 98 97 95 92 89 89 89 92 90 88 91
58 52 65 71 68 76 72 67 59 52 49 51 46 43 46 45 54 55 55 52 57 67 73 78 80 82 83 86 99 107 107 103 102 106 106 103 97 93 92 92 96 92 91
60 61 54 73 69 67 86 80 67 58 49 50 46 38 38 45 48 49 48 51 51 56 65 74 79 81 85 86 98 106 113 114 110 110 113 113 111 108 107 97 98 101 97
66 72 59 60 72 69 83 93 89 75 56 49 42 31 29 38 44 47 52 52 49 53 57 64 71 80 85 88 88 97 119 125 120 112 113 119 119 120 119 112 105 106 106
62 82 71 54 79 78 84 90 89 96 84 55 39 33 27 25 25 45 54 59 61 63 58 59 62 71 81 89 97 97 99 117 121 127 127 126 124 126 128 130 124 121 117
59 78 80 67 73 88 83 100 104 89 97 89 51 34 21 11 17 28 54 66 68 71 61 53 51 51 80 96 99 100 102 106 104 112 127 133 138 140 143 144 136 133 130
66 77 85 94 83 94 94 101 107 105 95 99 74 39 10 5 27 2 39 90 75 72 78 66 51 38 26 86 112 102 115 130 126 120 137 151 166 173 166 168 164 158 149
73 79 87 106 107 101 94 89 107 111 126 130 122 117 60 350 354 345 9 71 92 67 76 77 76 79 22 218 154 142 147 186 189 174 168 171 176 185 197 196 188 186 183
79 80 95 103 113 119 128 118 112 125 157 203 111 138 156 202 303 309 300 356 47 43 2 336 295 261 243 199 191 243 240 228 216 218 216 205 202 203 211 217 211 207 203
94 89 105 108 119 122 128 141 109 115 150 175 244 335 257 158 167 270 308 310 334 314 283 279 260 246 229 222 206 241 261 252 234 232 235 230 224 220 219 220 221 223 215
129 122 118 114 122 128 135 136 128 135 149 185 195 285 324 348 330 181 243 278 301 276 269 266 256 243 229 227 212 229 250 259 254 245 244 244 237 232 233 233 229 230 222
163 160 149 131 133 131 145 158 176 182 195 204 220 216 203 190 202 203 227 246 272 280 286 266 240 238 236 231 238 248 251 254 260 258 252 250 249 241 242 243 242 241 238
196 187 155 153 158 159 172 174 195 200 209 213 216 232 233 236 221 219 209 252 278 286 275 268 252 244 249 236 240 247 248 250 257 258 256 255 257 258 251 247 246 248 247
198 187 169 181 191 193 204 194 207 220 217 217 231 235 235 237 230 214 207 211 271 281 257 252 265 240 243 260 252 257 256 255 253 252 255 262 265 269 264 253 248 249 248
191 184 187 201 207 204 210 202 213 223 221 222 222 230 239 244 229 231 222 208 207 247 261 244 239 258 284 282 275 278 256 253 255 255 256 259 263 258 262 255 247 248 252
191 193 196 206 212 215 217 216 220 221 225 229 224 220 236 248 242 230 224 234 235 238 259 252 250 253 256 268 273 282 269 261 255 256 254 251 253 251 253 257 249 246 250
193 201 203 209 210 210 214 216 222 219 224 233 233 227 235 237 244 243 233 236 242 240 260 274 268 245 239 250 267 272 272 265 255 254 258 254 250 247 247 251 252 251 247
219 210 210 213 217 216 215 217 225 223 221 226 230 227 235 236 239 244 237 241 244 239 244 264 261 240 240 238 249 260 269 267 262 258 255 255 254 249 244 246 249 248 248
248 230 219 219 223 224 225 226 227 225 225 225 226 227 232 231 238 240 240 246 248 246 238 245 252 246 244 236 244 257 265 267 263 261 254 254 254 253 247 245 244 244 246
250 240 236 230 229 233 233 231 233 231 228 231 233 232 233 232 232 232 235 239 242 239 234 242 244 245 244 234 226 240 261 258 263 265 256 259 256 253 250 248 244 240 240
261 257 253 242 237 235 235 231 230 231 232 238 243 244 242 247 248 245 242 234 232 235 231 237 240 240 238 227 229 230 248 261 262 246 251 256 253 245 240 243 243 242 242
259 254 257 247 240 250 258 258 254 233 232 237 246 249 251 252 253 254 255 252 243 235 230 234 241 233 236 233 234 232 244 253 266 233 233 255 241 244 241 234 245 245 244
246 241 246 251 250 256 262 263 261 252 230 233 239 243 252 255 259 254 254 258 257 255 246 238 241 238 236 230 226 235 237 242 255 243 243 259 243 248 240 243 247 246 244
242 243 243 249 257 270 273 266 264 255 239 239 239 237 241 247 253 256 251 251 253 254 252 250 244 242 237 230 226 232 237 250 266 244 220 251 250 250 247 238 243 242 242
254 251 245 245 253 269 278 278 275 245 245 246 249 248 249 246 254 260 258 252 256 261 262 261 258 256 249 245 243 233 226 237 259 248 217 231 246 262 257 243 238 236 240
258 265 268 259 254 259 276 288 288 254 256 257 252 253 255 259 259 261 256 248 250 255 259 265 262 255 247 242 245 231 216 225 250 254 220 218 237 244 270 250 225 225 230